| time (UTC) | temp C | wind direction | speed KPH | gust KPH | rain 1hr cm | rain 24hr cm | rain mn cm | humidity % | barometer mb |
| 20260903125004 | 23 | 279 | 11.3 | 30.6 | 0.00 | 0.03 | 0.00 | 71 | 1016.3 |
| 20260903124004 | 23 | 264 | 11.3 | 30.6 | 0.00 | 0.03 | 0.00 | 71 | 1016.4 |
| 20260903122004 | 23 | 263 | 6.4 | 24.1 | 0.00 | 0.03 | 0.00 | 74 | 1016.5 |
| 20260903120004 | 23 | 271 | 8.0 | 20.9 | 0.00 | 0.03 | 0.00 | 73 | 1016.6 |
| 20260903115003 | 23 | 274 | 8.0 | 22.5 | 0.00 | 0.03 | 0.00 | 72 | 1016.6 |
| 20260903114003 | 23 | 261 | 8.0 | 24.1 | 0.00 | 0.03 | 0.00 | 73 | 1016.5 |
| 20260903113003 | 22 | 269 | 6.4 | 17.7 | 0.00 | 0.03 | 0.00 | 73 | 1016.5 |
| 20260903112004 | 22 | 265 | 8.0 | 22.5 | 0.00 | 0.03 | 0.00 | 74 | 1016.5 |
| 20260903111005 | 22 | 272 | 8.0 | 20.9 | 0.00 | 0.03 | 0.00 | 73 | 1016.5 |
| 20260903110005 | 22 | 279 | 8.0 | 22.5 | 0.00 | 0.03 | 0.00 | 73 | 1016.5 |
| 20260903105004 | 22 | 264 | 8.0 | 19.3 | 0.00 | 0.03 | 0.00 | 74 | 1016.5 |
| 20260903104005 | 22 | 260 | 8.0 | 25.7 | 0.00 | 0.03 | 0.00 | 75 | 1016.7 |
| 20260903103003 | 22 | 262 | 9.7 | 30.6 | 0.00 | 0.03 | 0.00 | 74 | 1016.6 |
| 20260903102004 | 22 | 263 | 11.3 | 25.7 | 0.00 | 0.03 | 0.00 | 76 | 1016.7 |
| 20260903101003 | 21 | 259 | 9.7 | 25.7 | 0.00 | 0.03 | 0.00 | 76 | 1016.7 |
| 20260903100004 | 21 | 261 | 11.3 | 27.4 | 0.00 | 0.03 | 0.00 | 76 | 1016.7 |
| 20260903095004 | 21 | 265 | 8.0 | 25.7 | 0.00 | 0.03 | 0.00 | 77 | 1016.7 |
| 20260903094003 | 21 | 266 | 6.4 | 30.6 | 0.00 | 0.03 | 0.00 | 79 | 1016.7 |
| 20260903093004 | 21 | 270 | 9.7 | 20.9 | 0.00 | 0.03 | 0.00 | 79 | 1016.7 |
| 20260903092005 | 21 | 263 | 8.0 | 24.1 | 0.00 | 0.03 | 0.00 | 80 | 1016.7 |
| 20260903091004 | 21 | 260 | 9.7 | 20.9 | 0.00 | 0.03 | 0.00 | 81 | 1016.7 |
| 20260903090005 | 20 | 269 | 9.7 | 20.9 | 0.00 | 0.03 | 0.00 | 80 | 1016.8 |
| 20260903084004 | 20 | 263 | 12.9 | 29.0 | 0.00 | 0.08 | 0.00 | 82 | 1016.5 |
| 20260903083004 | 20 | 266 | 9.7 | 29.0 | 0.00 | 0.08 | 0.00 | 84 | 1016.5 |
| 20260903082003 | 20 | 266 | 9.7 | 25.7 | 0.00 | 0.08 | 0.00 | 87 | 1016.3 |
| 20260903081004 | 19 | 263 | 8.0 | 30.6 | 0.00 | 0.08 | 0.00 | 88 | 1016.1 |
| 20260903080004 | 19 | 266 | 8.0 | 17.7 | 0.00 | 0.08 | 0.00 | 89 | 1015.9 |
| 20260903075004 | 19 | 265 | 8.0 | 24.1 | 0.00 | 0.08 | 0.00 | 89 | 1015.7 |
| 20260903073004 | 18 | 253 | 6.4 | 17.7 | 0.00 | 0.08 | 0.00 | 90 | 1015.3 |
| 20260903070004 | 18 | 258 | 6.4 | 17.7 | 0.00 | 0.08 | 0.00 | 90 | 1015.0 |
| 20260903064005 | 18 | 261 | 4.8 | 14.5 | 0.00 | 0.08 | 0.00 | 91 | 1015.1 |
| 20260903063004 | 18 | 254 | 6.4 | 19.3 | 0.00 | 0.08 | 0.00 | 91 | 1015.4 |
| 20260903062004 | 18 | 263 | 6.4 | 17.7 | 0.00 | 0.08 | 0.00 | 91 | 1015.4 |
| 20260903060004 | 18 | 260 | 6.4 | 16.1 | 0.00 | 0.08 | 0.00 | 91 | 1015.3 |
| 20260903053004 | 18 | 264 | 8.0 | 20.9 | 0.00 | 0.08 | 0.00 | 91 | 1015.1 |
| 20260903052003 | 18 | 258 | 6.4 | 16.1 | 0.00 | 0.08 | 0.00 | 91 | 1015.0 |
| 20260903050005 | 18 | 262 | 6.4 | 17.7 | 0.00 | 0.08 | 0.00 | 91 | 1015.0 |
| 20260903045004 | 18 | 254 | 6.4 | 20.9 | 0.00 | 0.08 | 0.00 | 91 | 1014.9 |
| 20260903044003 | 18 | 263 | 6.4 | 20.9 | 0.00 | 0.08 | 0.00 | 91 | 1014.9 |
| 20260903043004 | 18 | 250 | 6.4 | 14.5 | 0.00 | 0.08 | 0.00 | 91 | 1014.7 |
| 20260903042004 | 18 | 255 | 6.4 | 16.1 | 0.00 | 0.08 | 0.00 | 91 | 1014.8 |
| 20260903041003 | 18 | 252 | 6.4 | 17.7 | 0.00 | 0.08 | 0.00 | 91 | 1014.7 |
| 20260903035004 | 18 | 252 | 6.4 | 19.3 | 0.00 | 0.08 | 0.00 | 91 | 1014.9 |
| 20260903034003 | 18 | 250 | 8.0 | 20.9 | 0.00 | 0.08 | 0.00 | 91 | 1014.8 |
| 20260903033004 | 18 | 253 | 6.4 | 16.1 | 0.00 | 0.08 | 0.00 | 91 | 1014.9 |
| 20260903030004 | 18 | 242 | 4.8 | 14.5 | 0.00 | 0.08 | 0.00 | 91 | 1015.1 |
| 20260903024003 | 18 | 247 | 6.4 | 19.3 | 0.00 | 0.08 | 0.00 | 91 | 1015.0 |
| 20260903023004 | 18 | 242 | 4.8 | 19.3 | 0.00 | 0.08 | 0.00 | 91 | 1015.0 |
| 20260903022004 | 18 | 253 | 6.4 | 16.1 | 0.00 | 0.08 | 0.00 | 91 | 1015.1 |
| 20260903021004 | 18 | 252 | 6.4 | 16.1 | 0.00 | 0.08 | 0.00 | 91 | 1014.7 |
| 20260903020004 | 18 | 245 | 6.4 | 16.1 | 0.00 | 0.08 | 0.00 | 91 | 1014.8 |
| 20260903015003 | 18 | 252 | 6.4 | 19.3 | 0.00 | 0.08 | 0.00 | 91 | 1015.1 |
| 20260903013004 | 18 | 243 | 4.8 | 17.7 | 0.00 | 0.08 | 0.00 | 91 | 1015.1 |
| 20260903011004 | 18 | 252 | 6.4 | 17.7 | 0.00 | 0.08 | 0.00 | 91 | 1015.2 |
| 20260903010004 | 18 | 254 | 6.4 | 12.9 | 0.00 | 0.08 | 0.00 | 91 | 1015.3 |
| 20260903005004 | 18 | 250 | 6.4 | 22.5 | 0.00 | 0.08 | 0.00 | 91 | 1015.5 |
| 20260903004003 | 18 | 247 | 6.4 | 24.1 | 0.00 | 0.08 | 0.00 | 91 | 1015.6 |
| 20260903003004 | 18 | 246 | 4.8 | 16.1 | 0.00 | 0.08 | 0.00 | 91 | 1015.7 |
| 20260903002005 | 18 | 240 | 6.4 | 12.9 | 0.00 | 0.08 | 0.00 | 91 | 1015.6 |
| 20260903001004 | 18 | 249 | 6.4 | 19.3 | 0.00 | 0.08 | 0.00 | 91 | 1015.6 |
| 20260903000003 | 18 | 255 | 6.4 | 16.1 | 0.00 | 0.08 | 0.00 | 91 | 1015.7 |
| 20260902235003 | 18 | 263 | 4.8 | 19.3 | 0.00 | 0.08 | 0.00 | 91 | 1015.7 |
| 20260902233003 | 18 | 255 | 6.4 | 14.5 | 0.00 | 0.08 | 0.00 | 91 | 1015.6 |
| 20260902232003 | 18 | 254 | 6.4 | 17.7 | 0.00 | 0.08 | 0.00 | 91 | 1015.9 |
| 20260902231004 | 18 | 252 | 8.0 | 24.1 | 0.00 | 0.08 | 0.00 | 91 | 1015.9 |
| 20260902230004 | 18 | 251 | 6.4 | 19.3 | 0.00 | 0.08 | 0.00 | 91 | 1015.7 |
| 20260902225004 | 18 | 250 | 6.4 | 16.1 | 0.00 | 0.08 | 0.08 | 91 | 1015.7 |
| 20260902224004 | 18 | 248 | 6.4 | 22.5 | 0.00 | 0.08 | 0.08 | 92 | 1015.8 |
| 20260902223004 | 18 | 251 | 6.4 | 17.7 | 0.00 | 0.08 | 0.08 | 92 | 1016.0 |
| 20260902222004 | 18 | 250 | 6.4 | 16.1 | 0.00 | 0.08 | 0.08 | 92 | 1015.9 |
| 20260902221004 | 18 | 250 | 4.8 | 16.1 | 0.00 | 0.08 | 0.08 | 92 | 1015.9 |
| 20260902220005 | 18 | 241 | 4.8 | 16.1 | 0.00 | 0.08 | 0.08 | 92 | 1015.6 |
| 20260902215004 | 18 | 244 | 6.4 | 16.1 | 0.00 | 0.08 | 0.08 | 92 | 1015.5 |
| 20260902214003 | 18 | 239 | 3.2 | 19.3 | 0.00 | 0.08 | 0.08 | 92 | 1015.6 |
| 20260902213003 | 18 | 237 | 4.8 | 16.1 | 0.00 | 0.08 | 0.08 | 92 | 1015.5 |
| 20260902212003 | 18 | 248 | 4.8 | 14.5 | 0.00 | 0.08 | 0.08 | 92 | 1015.6 |
| 20260902211003 | 18 | 254 | 6.4 | 16.1 | 0.00 | 0.08 | 0.08 | 92 | 1015.6 |
| 20260902210003 | 18 | 249 | 6.4 | 20.9 | 0.00 | 0.08 | 0.08 | 92 | 1015.7 |
| 20260902205003 | 18 | 257 | 6.4 | 14.5 | 0.00 | 0.08 | 0.08 | 92 | 1015.5 |
| 20260902204004 | 18 | 242 | 6.4 | 17.7 | 0.00 | 0.08 | 0.08 | 92 | 1015.6 |
| 20260902203004 | 18 | 252 | 6.4 | 20.9 | 0.00 | 0.08 | 0.08 | 93 | 1015.6 |
| 20260902202004 | 18 | 243 | 6.4 | 14.5 | 0.00 | 0.08 | 0.08 | 93 | 1015.4 |
| 20260902201004 | 18 | 247 | 6.4 | 16.1 | 0.00 | 0.08 | 0.08 | 93 | 1015.5 |
| 20260902200004 | 18 | 258 | 8.0 | 17.7 | 0.00 | 0.08 | 0.08 | 93 | 1015.6 |
| 20260902195004 | 18 | 250 | 6.4 | 20.9 | 0.00 | 0.08 | 0.08 | 93 | 1015.6 |
| 20260902194001 | 18 | 242 | 4.8 | 19.3 | 0.00 | 0.08 | 0.08 | 94 | 1015.6 |
| 20260902193001 | 18 | 239 | 4.8 | 22.5 | 0.00 | 0.08 | 0.08 | 94 | 1015.6 |
| 20260902192003 | 17 | 242 | 4.8 | 12.9 | 0.00 | 0.08 | 0.08 | 95 | 1015.6 |
| 20260902191002 | 17 | 231 | 4.8 | 17.7 | 0.00 | 0.08 | 0.08 | 95 | 1015.4 |
| 20260902190002 | 17 | 240 | 3.2 | 11.3 | 0.00 | 0.08 | 0.08 | 95 | 1015.3 |
| 20260902184002 | 17 | 221 | 3.2 | 14.5 | 0.00 | 0.08 | 0.08 | 95 | 1015.3 |
| 20260902183001 | 17 | 210 | 3.2 | 12.9 | 0.00 | 0.08 | 0.08 | 94 | 1015.2 |
| 20260902182001 | 17 | 221 | 4.8 | 11.3 | 0.00 | 0.08 | 0.08 | 94 | 1015.5 |
| 20260902181002 | 17 | 190 | 3.2 | 14.5 | 0.00 | 0.08 | 0.08 | 93 | 1015.5 |
| 20260902180005 | 17 | 220 | 3.2 | 11.3 | 0.00 | 0.08 | 0.08 | 93 | 1015.5 |
| 20260902173001 | 18 | 210 | 6.4 | 17.7 | 0.00 | 0.08 | 0.08 | 89 | 1015.9 |